GW5240 Weather Reports


time (UTC)temp
C
wind
direction
speed
KPH
gust
KPH
rain 1hr
cm
rain 24hr
cm
rain mn
cm
humidity
%
barometer
mb
20260903053149 24 177 0.0 0.0 0.00 0.00 0.00 81 1011.2
20260903052645 24 161 0.0 0.0 0.00 0.00 0.00 80 1011.0
20260903052141 24 158 0.0 0.0 0.00 0.00 0.00 80 1010.9
20260903051635 24 150 0.0 0.0 0.00 0.00 0.00 80 1011.2
20260903051131 25 159 0.0 0.0 0.00 0.00 0.00 80 1011.0
20260903050626 25 155 0.0 0.0 0.00 0.00 0.00 79 1011.1
20260903050121 25 160 0.0 0.0 0.00 0.00 0.00 79 1011.1
20260903045620 25 156 0.0 0.0 0.00 0.10 0.10 79 1011.4
20260903045117 25 158 0.0 0.0 0.00 0.10 0.10 78 1011.4
20260903044612 25 163 0.0 0.0 0.00 0.10 0.10 78 1011.4
20260903044108 25 155 0.0 0.0 0.00 0.10 0.10 78 1011.2
20260903043604 25 163 0.0 0.0 0.00 0.10 0.10 78 1011.3
20260903043103 25 165 0.0 0.0 0.00 0.10 0.10 78 1011.4
20260903042557 25 160 0.0 0.0 0.00 0.10 0.10 77 1011.5
20260903042053 25 161 0.0 0.0 0.00 0.10 0.10 77 1011.7
20260903041549 25 152 0.0 0.0 0.00 0.10 0.10 77 1011.5
20260903041045 25 153 0.0 0.0 0.00 0.10 0.10 76 1011.4
20260903040543 25 173 0.0 0.0 0.00 0.10 0.10 76 1011.4
20260903040040 25 155 0.0 0.0 0.00 0.10 0.10 75 1011.4
20260903035541 25 148 0.0 0.0 0.00 0.10 0.10 75 1011.4
20260903035037 25 164 0.0 0.0 0.00 0.10 0.10 74 1011.5
20260903034537 25 151 0.0 0.0 0.00 0.10 0.10 74 1011.7
20260903034032 25 151 0.0 0.0 0.00 0.10 0.10 75 1011.4
20260903033527 25 129 0.0 0.0 0.00 0.10 0.10 75 1011.6
20260903033022 25 152 0.0 0.0 0.00 0.10 0.10 75 1011.6
20260903032517 25 140 0.0 0.0 0.00 0.10 0.10 76 1011.6
20260903032013 25 164 0.0 0.0 0.00 0.10 0.10 76 1011.7
20260903031512 25 157 0.0 0.0 0.00 0.10 0.10 75 1011.6
20260903031008 25 164 0.0 0.0 0.00 0.10 0.10 74 1011.8
20260903030503 25 161 0.0 0.0 0.00 0.10 0.10 74 1011.7
20260903025959 25 151 0.0 0.0 0.00 0.10 0.10 74 1011.5
20260903025449 25 156 0.0 0.0 0.00 0.10 0.10 74 1011.6
20260903024944 25 164 0.0 0.0 0.00 0.10 0.10 74 1011.5
20260903024443 25 164 0.0 0.0 0.00 0.10 0.10 74 1011.6
20260903023938 25 164 0.0 0.0 0.00 0.10 0.10 73 1011.4
20260903023434 25 160 0.0 0.0 0.00 0.10 0.10 73 1011.6
20260903022929 25 160 0.0 0.0 0.00 0.10 0.10 73 1011.4
20260903022428 25 157 0.0 0.0 0.00 0.10 0.10 73 1011.6
20260903021927 25 164 0.0 0.0 0.00 0.10 0.10 74 1011.4
20260903021422 25 162 0.0 0.0 0.00 0.10 0.10 76 1011.3
20260903020917 25 162 0.0 0.0 0.00 0.10 0.10 76 1011.5
20260903020413 25 158 0.0 0.0 0.00 0.10 0.10 76 1011.5
20260903015907 25 161 0.0 0.0 0.00 0.10 0.10 76 1011.4
20260903015403 25 161 0.0 0.0 0.00 0.10 0.10 75 1011.5
20260903014857 25 161 0.0 0.0 0.00 0.10 0.10 75 1011.3
20260903014351 25 161 0.0 0.0 0.00 0.10 0.10 75 1011.2
20260903013846 25 161 0.0 0.0 0.00 0.10 0.10 74 1011.2
20260903013345 26 161 0.0 0.0 0.00 0.10 0.10 73 1011.2
20260903012845 26 161 0.0 0.0 0.00 0.10 0.10 72 1011.0
20260903012339 26 161 0.0 0.0 0.00 0.10 0.10 72 1011.4
20260903011832 26 163 0.0 0.0 0.00 0.10 0.10 72 1011.1
20260903011332 26 163 0.0 0.0 0.00 0.10 0.10 71 1010.9
20260903010822 26 162 0.0 0.0 0.00 0.10 0.10 70 1011.0
20260903010318 26 163 0.0 0.0 0.00 0.10 0.10 70 1010.9
20260903005815 27 163 0.0 0.0 0.00 0.10 0.10 69 1010.8
20260903005310 27 163 0.0 0.0 0.00 0.10 0.10 68 1010.8
20260903004801 27 163 0.0 0.0 0.00 0.10 0.10 67 1011.0
20260903004256 27 163 0.0 0.0 0.00 0.10 0.10 66 1010.8
20260903003752 27 163 0.0 0.0 0.00 0.10 0.10 66 1010.8
20260903003252 28 163 0.0 0.0 0.00 0.10 0.10 65 1010.8
20260903002746 28 163 0.0 0.0 0.00 0.10 0.10 64 1011.0
20260903002240 28 167 0.0 0.0 0.00 0.10 0.10 63 1011.0
20260903001737 28 168 0.0 0.0 0.00 0.10 0.10 63 1010.7
20260903001236 28 167 0.0 0.0 0.00 0.10 0.10 62 1011.0
20260903000731 29 166 0.0 0.0 0.00 0.10 0.10 61 1010.9
20260903000233 29 152 0.0 0.0 0.00 0.10 0.10 61 1010.8
20260902235730 29 166 0.0 0.0 0.00 0.10 0.10 60 1010.8
20260902235225 29 178 1.6 3.2 0.00 0.10 0.10 60 1010.8
20260902234724 30 176 0.0 3.2 0.00 0.10 0.10 60 1010.7
20260902234223 30 169 0.0 0.0 0.00 0.10 0.10 59 1010.9
20260902233717 30 139 0.0 3.2 0.00 0.10 0.10 60 1010.9
20260902233212 30 173 0.0 0.0 0.00 0.10 0.10 58 1010.8
20260902232711 30 164 3.2 3.2 0.00 0.10 0.10 58 1010.9
20260902232210 30 159 0.0 0.0 0.00 0.10 0.10 57 1010.9
20260902231705 30 164 0.0 0.0 0.00 0.10 0.10 57 1010.9
20260902231200 30 167 3.2 3.2 0.00 0.10 0.10 56 1011.0
20260902230655 30 162 0.0 0.0 0.00 0.10 0.10 56 1010.9
20260902230154 30 165 3.2 4.8 0.00 0.10 0.10 55 1010.8
20260902225649 31 176 1.6 3.2 0.00 0.10 0.10 54 1011.1
20260902225143 31 153 3.2 3.2 0.00 0.10 0.10 54 1010.9
20260902224642 31 76 1.6 3.2 0.00 0.10 0.10 54 1011.1
20260902224137 31 174 0.0 3.2 0.00 0.10 0.10 54 1010.9
20260902223633 31 234 3.2 3.2 0.00 0.10 0.10 52 1010.7
20260902223132 32 151 3.2 3.2 0.00 0.10 0.10 51 1010.9
20260902222626 32 191 1.6 3.2 0.00 0.10 0.10 50 1010.9
20260902222125 32 178 0.0 3.2 0.00 0.10 0.10 50 1010.9
20260902221619 32 172 0.0 0.0 0.00 0.10 0.10 49 1010.9
20260902221114 33 179 0.0 0.0 0.00 0.10 0.10 48 1010.8
20260902220610 32 174 0.0 0.0 0.00 0.10 0.10 48 1011.0
20260902220104 33 167 3.2 3.2 0.00 0.10 0.10 48 1010.9
20260902215601 33 178 0.0 3.2 0.00 0.10 0.10 48 1011.0
20260902215055 33 202 0.0 3.2 0.00 0.10 0.10 48 1011.0
20260902214550 32 176 0.0 0.0 0.00 0.10 0.10 50 1011.1
20260902214049 32 170 1.6 3.2 0.00 0.10 0.10 51 1011.1
20260902213545 32 46 4.8 4.8 0.00 0.10 0.10 49 1011.2
20260902213044 31 186 1.6 3.2 0.00 0.10 0.10 50 1011.1
20260902212539 32 48 3.2 4.8 0.00 0.10 0.10 50 1011.1
20260902212036 32 89 3.2 4.8 0.00 0.10 0.10 50 1011.2
20260902211532 32 206 0.0 3.2 0.00 0.10 0.10 50 1011.4
20260902211026 32 164 1.6 4.8 0.00 0.10 0.10 49 1011.1
20260902210521 32 197 1.6 3.2 0.00 0.10 0.10 50 1011.3
20260902210020 32 92 3.2 3.2 0.00 0.10 0.10 50 1011.3
20260902205514 32 202 1.6 3.2 0.00 0.10 0.10 50 1011.3
20260902205010 32 93 1.6 3.2 0.00 0.10 0.10 50 1011.3
20260902204509 32 171 0.0 3.2 0.00 0.10 0.10 49 1011.3
20260902204005 32 176 3.2 4.8 0.00 0.10 0.10 49 1011.3
20260902203500 33 189 0.0 3.2 0.00 0.10 0.10 49 1011.3
20260902202958 32 167 0.0 0.0 0.00 0.10 0.10 50 1011.4
20260902202455 32 178 0.0 3.2 0.00 0.10 0.10 50 1011.6
20260902201952 32 188 3.2 3.2 0.00 0.10 0.10 49 1011.6
20260902201447 32 288 3.2 4.8 0.00 0.10 0.10 50 1011.7
20260902200946 31 212 3.2 4.8 0.00 0.10 0.10 50 1011.7
20260902200441 31 217 3.2 4.8 0.00 0.10 0.10 51 1011.8
20260902195937 31 198 0.0 3.2 0.00 0.10 0.10 51 1011.8
20260902195432 31 169 1.6 3.2 0.00 0.10 0.10 51 1011.9
20260902194931 31 184 1.6 3.2 0.00 0.10 0.10 51 1012.0
20260902194426 31 234 1.6 3.2 0.00 0.10 0.10 52 1012.1
20260902193921 31 176 1.6 3.2 0.00 0.10 0.10 52 1012.1
20260902193417 31 273 3.2 4.8 0.00 0.10 0.10 52 1012.1
20260902192916 31 236 3.2 4.8 0.00 0.10 0.10 52 1012.2
20260902192415 30 192 1.6 3.2 0.00 0.10 0.10 54 1012.3
20260902191914 31 171 4.8 4.8 0.00 0.10 0.10 54 1012.3
20260902191410 31 175 1.6 3.2 0.00 0.10 0.10 53 1012.4
20260902190910 30 134 1.6 3.2 0.00 0.10 0.10 54 1012.3
20260902190405 30 206 4.8 4.8 0.00 0.10 0.10 53 1012.3
20260902185901 30 195 3.2 3.2 0.00 0.10 0.10 54 1012.3
20260902185356 30 180 0.0 0.0 0.00 0.10 0.10 54 1012.2
20260902184852 30 175 0.0 0.0 0.00 0.10 0.10 55 1012.3
20260902184347 30 167 3.2 3.2 0.00 0.10 0.10 56 1012.3
20260902183842 30 166 6.4 8.0 0.00 0.10 0.10 54 1012.3
20260902183338 29 68 3.2 4.8 0.00 0.10 0.10 56 1012.3
20260902182834 29 290 3.2 3.2 0.00 0.10 0.10 55 1012.4
20260902182330 29 66 0.0 3.2 0.00 0.10 0.10 57 1012.4
20260902181826 29 176 3.2 3.2 0.00 0.10 0.10 57 1012.3
20260902181321 29 5 8.0 8.0 0.00 0.10 0.10 56 1012.5
20260902180815 28 145 1.6 3.2 0.00 0.10 0.10 59 1012.5
20260902180311 28 94 3.2 4.8 0.00 0.10 0.10 59 1012.6
20260902175806 28 173 3.2 4.8 0.00 0.10 0.10 57 1012.8
20260902175306 28 124 4.8 4.8 0.00 0.10 0.10 57 1013.1
20260902174757 28 211 4.8 4.8 0.00 0.10 0.10 57 1013.3
20260902174254 28 147 3.2 3.2 0.00 0.10 0.10 59 1013.2
20260902173749 28 150 0.0 0.0 0.00 0.10 0.10 60 1013.4
20260902173248 27 164 0.0 0.0 0.00 0.10 0.10 62 1013.5
20260902172743 28 91 3.2 3.2 0.00 0.10 0.10 61 1013.7
20260902172238 27 132 1.6 3.2 0.00 0.10 0.10 62 1013.8
20260902171733 28 204 3.2 4.8 0.00 0.10 0.10 61 1013.6
20260902171228 27 158 1.6 3.2 0.00 0.10 0.10 63 1013.8
20260902170724 27 164 0.0 0.0 0.00 0.10 0.10 63 1013.9
20260902170219 27 183 3.2 4.8 0.00 0.10 0.10 62 1014.0
20260902165720 27 162 3.2 3.2 0.00 0.10 0.10 64 1013.7
20260902165214 27 188 1.6 3.2 0.00 0.10 0.10 63 1013.7
20260902164709 27 176 3.2 4.8 0.00 0.10 0.10 62 1013.5
20260902164208 27 158 0.0 0.0 0.00 0.10 0.10 62 1013.7
20260902163703 27 172 1.6 3.2 0.00 0.10 0.10 62 1013.5
20260902163203 26 110 3.2 4.8 0.00 0.10 0.10 64 1013.5
20260902162701 26 155 4.8 8.0 0.00 0.10 0.10 63 1013.6
20260902162156 26 177 0.0 0.0 0.00 0.10 0.10 66 1013.5
20260902161651 26 196 3.2 3.2 0.00 0.10 0.10 63 1013.6
20260902161147 26 162 3.2 3.2 0.00 0.10 0.10 65 1013.5
20260902160644 27 5 1.6 3.2 0.00 0.10 0.10 64 1013.8
20260902160138 26 181 0.0 0.0 0.00 0.10 0.10 65 1013.5
20260902155637 26 171 3.2 4.8 0.00 0.10 0.10 64 1013.3
20260902155135 26 152 0.0 0.0 0.00 0.10 0.10 65 1013.2
20260902154630 26 128 3.2 4.8 0.00 0.10 0.10 64 1013.2
20260902154125 26 166 0.0 0.0 0.00 0.10 0.10 64 1013.4
20260902153625 26 71 3.2 4.8 0.00 0.10 0.10 65 1013.2
20260902153115 26 164 0.0 0.0 0.00 0.10 0.10 66 1013.3
20260902152611 26 162 0.0 0.0 0.00 0.10 0.10 65 1013.2
20260902152106 25 155 0.0 0.0 0.00 0.10 0.10 67 1013.2
20260902151602 25 156 1.6 3.2 0.00 0.10 0.10 67 1013.4
20260902151100 25 160 0.0 3.2 0.00 0.10 0.10 71 1013.2
20260902150555 24 169 0.0 0.0 0.00 0.10 0.10 70 1013.3
20260902150051 24 111 1.6 3.2 0.00 0.10 0.10 71 1013.2
20260902145546 23 158 0.0 3.2 0.00 0.10 0.10 74 1013.2
20260902145040 23 185 3.2 3.2 0.00 0.10 0.10 75 1013.2
20260902144537 22 164 0.0 0.0 0.00 0.10 0.10 75 1013.3
20260902144032 22 166 0.0 0.0 0.00 0.10 0.10 78 1013.2
20260902143531 21 159 0.0 0.0 0.00 0.10 0.10 79 1013.5
20260902143027 21 154 1.6 3.2 0.00 0.10 0.10 79 1013.4
20260902142523 21 170 1.6 3.2 0.00 0.10 0.10 80 1013.5
20260902142019 21 120 1.6 3.2 0.00 0.10 0.10 81 1013.4
20260902141518 21 89 1.6 3.2 0.00 0.10 0.10 81 1013.4
20260902141013 20 172 1.6 3.2 0.00 0.10 0.10 82 1013.6
20260902140508 20 168 3.2 3.2 0.00 0.10 0.10 84 1013.6
20260902140003 20 175 3.2 4.8 0.00 0.10 0.10 84 1013.7
20260902135457 20 152 0.0 0.0 0.00 0.10 0.10 84 1013.4
20260902134951 20 160 1.6 3.2 0.00 0.10 0.10 84 1013.5
20260902134447 20 167 0.0 0.0 0.00 0.10 0.10 84 1013.5
20260902133942 20 341 8.0 8.0 0.00 0.10 0.10 84 1013.5
20260902133437 20 190 3.2 3.2 0.00 0.10 0.10 85 1013.5
20260902132932 20 154 0.0 0.0 0.00 0.10 0.10 85 1013.6
20260902132427 20 130 0.0 3.2 0.00 0.10 0.10 86 1013.5
20260902131921 20 160 0.0 0.0 0.00 0.10 0.10 87 1013.6
20260902131419 19 158 0.0 0.0 0.00 0.10 0.10 88 1013.6
20260902130918 19 172 0.0 3.2 0.00 0.10 0.10 88 1013.4
20260902130414 18 119 1.6 3.2 0.00 0.10 0.10 89 1013.1
20260902125914 18 174 0.0 0.0 0.00 0.10 0.10 89 1013.2
20260902125410 18 174 1.6 3.2 0.00 0.10 0.10 89 1013.4
20260902124906 18 154 0.0 0.0 0.00 0.10 0.10 90 1013.5
20260902124402 18 233 3.2 4.8 0.00 0.10 0.10 90 1013.6
20260902123856 18 165 0.0 0.0 0.00 0.10 0.10 91 1013.5
20260902123353 18 177 3.2 3.2 0.00 0.10 0.10 91 1013.4
20260902122851 18 152 0.0 0.0 0.00 0.10 0.10 92 1013.6
20260902122348 18 158 0.0 0.0 0.00 0.10 0.10 93 1013.3
20260902121847 18 168 0.0 0.0 0.00 0.10 0.10 94 1013.5
20260902121342 18 169 0.0 0.0 0.00 0.10 0.10 94 1013.4
20260902120838 18 164 0.0 0.0 0.00 0.10 0.10 94 1013.3
20260902120334 18 160 0.0 0.0 0.00 0.10 0.10 94 1013.3
20260902115828 17 137 1.6 3.2 0.00 0.10 0.10 94 1013.5
20260902115325 17 156 0.0 0.0 0.00 0.10 0.10 94 1013.5
20260902114821 17 156 0.0 0.0 0.00 0.10 0.10 94 1013.6
20260902114317 17 156 0.0 0.0 0.00 0.10 0.10 94 1013.3
20260902113817 18 175 0.0 0.0 0.00 0.10 0.10 94 1013.5
20260902113312 18 151 0.0 0.0 0.00 0.10 0.10 94 1013.5
20260902112811 18 148 0.0 0.0 0.00 0.10 0.10 94 1013.5
20260902112308 17 169 0.0 0.0 0.00 0.10 0.10 94 1013.9
20260902111803 17 173 0.0 0.0 0.00 0.10 0.10 94 1013.8
20260902111259 17 177 0.0 0.0 0.00 0.10 0.10 94 1014.0
20260902110755 17 172 0.0 0.0 0.00 0.10 0.10 94 1014.0
20260902110251 17 172 0.0 3.2 0.00 0.10 0.10 94 1013.8
20260902105750 17 164 0.0 0.0 0.00 0.10 0.10 94 1013.7
20260902105245 17 167 0.0 0.0 0.00 0.10 0.10 94 1014.0
20260902104741 17 158 0.0 0.0 0.00 0.10 0.10 94 1014.2
20260902104237 17 170 0.0 0.0 0.00 0.10 0.10 94 1014.4
20260902103736 17 170 0.0 0.0 0.00 0.10 0.10 94 1014.1
20260902103231 18 170 0.0 0.0 0.00 0.10 0.10 94 1014.2
20260902102726 18 170 0.0 0.0 0.00 0.10 0.10 94 1014.2
20260902102224 18 172 0.0 0.0 0.00 0.10 0.10 93 1014.3
20260902101719 18 169 0.0 0.0 0.00 0.10 0.10 94 1014.0
20260902101214 18 169 0.0 0.0 0.00 0.10 0.10 93 1014.1
20260902100713 18 176 0.0 0.0 0.00 0.10 0.10 93 1013.8
20260902100208 18 176 0.0 0.0 0.00 0.10 0.10 93 1013.8
20260902095708 18 181 0.0 0.0 0.00 0.10 0.10 93 1013.6
20260902095208 18 181 0.0 0.0 0.00 0.10 0.10 93 1013.6
20260902094702 18 168 0.0 0.0 0.00 0.10 0.10 93 1013.3
20260902094159 18 163 0.0 0.0 0.00 0.10 0.10 93 1013.2
20260902093658 18 174 0.0 0.0 0.00 0.10 0.10 93 1013.2
20260902093153 18 173 0.0 0.0 0.00 0.10 0.10 93 1012.9
20260902092648 18 177 0.0 0.0 0.00 0.10 0.10 93 1012.9
20260902092142 18 176 0.0 0.0 0.00 0.10 0.10 93 1012.8
20260902091637 18 172 0.0 0.0 0.00 0.10 0.10 93 1012.4
20260902091134 18 175 0.0 0.0 0.00 0.10 0.10 93 1012.0
20260902090629 18 176 0.0 0.0 0.00 0.10 0.10 93 1012.1
20260902090128 18 146 0.0 0.0 0.00 0.10 0.10 93 1011.9
20260902085623 18 141 0.0 0.0 0.00 0.10 0.10 93 1012.0
20260902085118 18 151 1.6 3.2 0.00 0.10 0.10 93 1012.0
20260902084615 18 126 4.8 4.8 0.00 0.10 0.10 93 1012.0
20260902084110 18 158 1.6 3.2 0.00 0.10 0.10 94 1012.0
20260902083605 18 144 1.6 3.2 0.00 0.10 0.10 94 1012.1
20260902083105 18 150 0.0 0.0 0.00 0.10 0.10 94 1012.4
20260902082600 18 131 0.0 0.0 0.00 0.10 0.10 94 1012.6
20260902082057 18 151 0.0 0.0 0.00 0.10 0.10 94 1012.7
20260902081554 18 151 0.0 0.0 0.00 0.10 0.10 93 1013.1
20260902081048 18 151 0.0 0.0 0.00 0.10 0.10 93 1013.3
20260902080543 18 141 0.0 0.0 0.00 0.10 0.10 93 1013.1
20260902080040 18 143 0.0 0.0 0.00 0.10 0.10 92 1013.2
20260902075539 18 140 1.6 3.2 0.00 0.10 0.10 92 1013.1
20260902075035 18 174 0.0 0.0 0.00 0.10 0.10 91 1013.5
20260902074530 18 174 0.0 0.0 0.00 0.10 0.10 90 1013.5
20260902074026 18 175 0.0 0.0 0.00 0.10 0.10 89 1012.9
20260902073521 18 173 0.0 0.0 0.00 0.10 0.10 89 1012.5
20260902073017 19 170 0.0 0.0 0.13 0.10 0.10 89 1012.4
20260902072512 19 147 0.0 3.2 0.30 0.10 0.10 88 1012.6
20260902072009 19 142 0.0 3.2 0.18 0.08 0.08 87 1012.9
20260902071508 20 144 0.0 3.2 0.18 0.08 0.08 86 1013.6
20260902071005 20 172 3.2 3.2 0.13 0.05 0.05 84 1014.0
20260902070500 20 163 0.0 0.0 0.30 0.05 0.05 84 1014.4
20260902065959 21 178 4.8 8.0 0.18 0.03 0.03 83 1014.6
20260902065453 21 146 3.2 4.8 0.00 0.00 0.00 85 1014.9
20260902064948 21 175 3.2 4.8 0.00 0.00 0.00 85 1015.1
20260902064444 21 85 1.6 3.2 0.00 0.00 0.00 84 1015.5
20260902063940 21 179 3.2 3.2 0.00 0.00 0.00 83 1015.2
20260902063439 21 169 0.0 0.0 0.00 0.00 0.00 79 1014.7
20260902062935 21 169 0.0 0.0 0.00 0.00 0.00 77 1015.0
20260902062433 21 169 0.0 0.0 0.00 0.00 0.00 75 1014.9
20260902061928 21 169 0.0 0.0 0.00 0.00 0.00 75 1014.8
20260902061424 21 170 0.0 0.0 0.00 0.00 0.00 76 1014.5
20260902060920 21 187 0.0 0.0 0.00 0.00 0.00 77 1013.8
20260902060415 21 178 0.0 0.0 0.00 0.00 0.00 78 1013.6
20260902055911 21 169 0.0 0.0 0.00 0.00 0.00 77 1013.4
20260902055407 21 169 0.0 0.0 0.00 0.00 0.00 78 1013.2
20260902054902 21 168 0.0 0.0 0.00 0.00 0.00 78 1012.8
20260902054357 21 160 0.0 0.0 0.00 0.00 0.00 78 1012.6
20260902053854 21 159 0.0 0.0 0.00 0.00 0.00 78 1013.1